Orbital Elements at Epoch 2459200.5 (2020-Dec-17.0) TDB
Reference: JPL 20 (heliocentric ecliptic J2000)
Element | Value | Uncertainty (1-sigma) | Units |
e | .1753869311302335 | 2.6267e-08 | |
a | 2.540719322636272 | 1.1016e-08 | au |
q | 2.09511035777581 | 6.4747e-08 | au |
i | 3.778965084471636 | 5.0078e-06 | deg |
node | 270.9610000788437 | 7.2649e-05 | deg |
peri | 135.7452403363745 | 7.5557e-05 | deg |
M | 50.13137453781737 | 2.0249e-05 | deg |
tp | 2458994.512638658884 (2020-May-25.01263866) | 8.3147e-05 | TDB |
period | 1479.222358582276 4.05 | 9.6207e-06 2.634e-08 | d yr |
n | .24337111855518 | 1.5829e-09 | deg/d |
Q | 2.986328287496733 | 1.2948e-08 | au |
|
| | Orbit Determination Parameters
Additional Information
|